Satellite: NANOSALD
Catalog number: 37361
Epoch time:      11116.73946851
Element set:    0160
Inclination:      071.9704 deg
RA of node:       150.7935 deg
Eccentricity:    0.0033612
Arg of perigee:   294.3537 deg
Mean anomaly:     065.3944 deg
Mean motion:   14.91486360 rev/day
Decay rate:    1.10781e-03 rev/day^2
Epoch rev:           01443
Checksum:              295

Satellite: FAST2
Catalog number: 37380
Epoch time:      11125.24822848
Element set:    0154
Inclination:      071.9716 deg
RA of node:       133.9983 deg
Eccentricity:    0.0017701
Arg of perigee:   352.8289 deg
Mean anomaly:     007.2583 deg
Mean motion:   14.76338325 rev/day
Decay rate:       4.98e-06 rev/day^2
Epoch rev:           02452
Checksum:              311

/EX
SB KEPS @ AMSAT  $ORB11125.W
Orbital Elements  11125.WEATHER

HR AMSAT ORBITAL ELEMENTS FOR WEATHER SATELLITES
FROM WA5QGD FORT WORTH,TX May 5, 2011
Send Subscribe/unsubscribe to KEPS at http://www.amsat.org/mailman/listinfo/kep
BID: ORB11125.W
TO ALL RADIO AMATEURS BT

Satellite: NOAA-10
Catalog number: 16969
Epoch time:      11124.96166952
Element set:    0498
Inclination:      098.6237 deg
RA of node:       155.3288 deg
Eccentricity:    0.0012232
Arg of perigee:   356.3107 deg
Mean anomaly:     003.7979 deg
Mean motion:   14.27458320 rev/day
Decay rate:       1.10e-06 rev/day^2
Epoch rev:           28148
Checksum:              314

Satellite: NOAA-11
Catalog number: 19531
Epoch time:      11124.78134771
Element set:    0493
Inclination:      098.7513 deg
RA of node:       213.0650 deg
Eccentricity:    0.0010679
Arg of perigee:   315.5497 deg
Mean anomaly:     044.4807 deg
Mean motion:   14.14914575 rev/day
Decay rate:       1.67e-06 rev/day^2
Epoch rev:           16661
Checksum:              303

Satellite: NOAA-12
Catalog number: 21263
Epoch time:      11124.92586621
Element set:    0996
Inclination:      098.7529 deg
RA of node:       142.8449 deg
Eccentricity:    0.0011693
Arg of perigee:   316.3883 deg
Mean anomaly:     043.6372 deg
Mean motion:   14.25707755 rev/day
Decay rate:       1.72e-06 rev/day^2
Epoch rev:           03824
Checksum:              318

Satellite: MET-3/5
Catalog number: 21655
Epoch time:      11124.83179607
Element set:    0104
Inclination:      082.5557 deg
RA of node:       081.4029 deg
Eccentricity:    0.0012109
Arg of perigee:   266.5649 deg
Mean anomaly:     093.4096 deg
Mean motion:   13.17030559 rev/day
Decay rate:        5.1e-07 rev/day^2
Epoch rev:           94801
Checksum:              293

Satellite: MET-2/21
Catalog number: 22782
Epoch time:      11125.73640715
Element set:      87
Inclination:      082.5496 deg
RA of node:       356.5632 deg
Eccentricity:    0.0021348
Arg of perigee:   215.3376 deg
Mean anomaly:     144.6369 deg
Mean motion:   13.83657763 rev/day
Decay rate:       -1.4e-07 rev/day^2
Epoch rev:           89268
Checksum:              325

Satellite: OKEAN-4
Catalog number: 23317
Epoch time:      11125.52365757
Element set:     545
Inclination:      082.5402 deg
RA of node:       052.9732 deg
Eccentricity:    0.0020143
Arg of perigee:   259.6619 deg
Mean anomaly:     100.2325 deg
Mean motion:   14.83050052 rev/day
Decay rate:      1.030e-05 rev/day^2
Epoch rev:           89422
Checksum:              260

Satellite: NOAA-14
Catalog number: 23455
Epoch time:      11124.93685750
Element set:    0486
Inclination:      098.8530 deg
RA of node:       208.0007 deg
Eccentricity:    0.0010207
Arg of perigee:   045.7315 deg
Mean anomaly:     314.4689 deg
Mean motion:   14.13816407 rev/day
Decay rate:       -1.0e-08 rev/day^2
Epoch rev:           84296
Checksum:              292

Satellite: NOAA-15
Catalog number: 25338
Epoch time:      11124.83974921
Element set:    0802
Inclination:      098.6508 deg
RA of node:       111.5822 deg
Eccentricity:    0.0009955
Arg of perigee:   214.7448 deg
Mean anomaly:     145.3063 deg
Mean motion:   14.24909608 rev/day
Decay rate:       3.34e-06 rev/day^2
Epoch rev:           67455
Checksum:              315

Satellite: RESURS
Catalog number: 25394
Epoch time:      11124.97180556
Element set:    0805
Inclination:      098.2983 deg
RA of node:       130.3755 deg
Eccentricity:    0.0002006
Arg of perigee:   030.7280 deg
Mean anomaly:     329.4018 deg
Mean motion:   14.24232059 rev/day
Decay rate:        3.7e-07 rev/day^2
Epoch rev:           66615
Checksum:              280

Satellite: FENGYUN1
Catalog number: 25730
Epoch time:      11125.90783689
Element set:     317
Inclination:      098.8174 deg
RA of node:       088.0377 deg
Eccentricity:    0.0025545
Arg of perigee:   068.3874 deg
Mean anomaly:     292.0002 deg
Mean motion:   14.08604932 rev/day
Decay rate:       4.07e-06 rev/day^2
Epoch rev:           61711
Checksum:              304

Satellite: OKEAN-0
Catalog number: 25860
Epoch time:      11124.98136363
Element set:    0300
Inclination:      097.8800 deg
RA of node:       092.6264 deg
Eccentricity:    0.0001745
Arg of perigee:   094.5692 deg
Mean anomaly:     265.5715 deg
Mean motion:   14.73771058 rev/day
Decay rate:       4.21e-06 rev/day^2
Epoch rev:           63429
Checksum:              300

